Location: Llanerch-Aeron
(52.2000°N, 4.2333°W)
Time: 02:39:03
(UTC+00:00)

Daily predictions for brighter satellites

Satellite Brightness Start Highest point End
(mag) Time Altitude Azimuth Time Altitude Azimuth Time Altitude Azimuth
ATLAS 3B R/B 3.8 03:30:34 39° ENE 03:30:34 39° ENE 03:35:49 10° E
Cosmos 2227 Rocket 4.3 03:57:13 19° NNE 03:57:13 19° NNE 03:58:47 10° NNE
Cosmos 2344 4.4 03:53:00 51° NNW 03:55:13 62° NNE 04:06:50 10° ESE
CENTAUR R/B 3.5 04:01:35 53° SSE 04:01:35 53° SSE 04:08:08 10° SSE
ATLAS 2AS CENTAUR R/B 4.1 04:15:31 16° S 04:21:17 41° ESE 04:28:29 10° NE
Cosmos 2297 Rocket 4.0 04:30:31 20° N 04:30:31 20° N 04:32:33 10° NNE
ATLAS 5 CENTAUR R/B 4.2 04:31:19 20° ENE 04:31:19 20° ENE 04:32:07 10° NE
ATLAS CENTAUR R/B 3.7 04:32:06 21° E 04:32:06 21° E 04:33:37 10° ESE
Lacrosse 5 3.4 04:32:03 28° SE 04:32:41 29° SE 04:37:02 10° ENE
Cosmos 1745 Rocket 4.2 04:44:18 57° NNW 04:44:18 57° NNW 04:49:22 10° N
Cosmos 2263 Rocket 2.2 04:43:11 76° ESE 04:43:14 76° ESE 04:48:57 10° NNE
SJ 16-02 2.4 04:45:52 44° ESE 04:45:59 44° ESE 04:50:13 10° NE
Meteor 1-26 Rocket 4.3 04:48:59 38° N 04:51:20 76° ENE 04:56:59 10° SSE
Cosmos 1766 Rocket 4.1 04:58:04 56° NE 04:58:04 56° NE 05:01:51 10° NNE
FENGYUN 3A 3.8 04:52:45 10° NNE 04:58:12 72° ESE 05:03:35 10° S
Cosmos 2082 Rocket 4.4 04:57:54 13° N 05:00:47 18° NNE 05:04:37 10° ENE
Cosmos 2181 Rocket 3.9 04:56:17 10° N 05:02:33 88° E 05:08:42 10° S
USA 307 3.5 05:05:08 55° NE 05:05:08 55° NE 05:08:41 10° E
Okean 3 Rocket 4.4 05:07:16 40° NNE 05:07:16 40° NNE 05:10:10 10° NNE
COSMO-SKYMED 1 2.8 05:03:08 10° SSE 05:07:27 67° ENE 05:07:59 60° NNE
Cosmos 1709 Rocket 3.9 05:01:48 10° SSW 05:08:11 82° WNW 05:14:37 10° N
USA 308 3.2 05:11:14 61° NE 05:11:14 61° NE 05:15:02 10° E
Cosmos 1833 Rocket 4.5 05:08:13 15° N 05:11:42 25° NE 05:16:20 10° E
Lacrosse 4 Rocket 3.5 05:14:32 18° S 05:14:32 18° S 05:15:51 10° S
Meteor 2-3 Rocket 3.8 05:09:39 10° S 05:15:24 82° E 05:21:14 10° NNE
CZ-4C R/B 3.2 05:11:05 10° S 05:15:44 42° ESE 05:21:21 10° NE
CZ-4B R/B 4.3 05:12:24 10° NNE 05:16:44 43° E 05:20:57 10° S
ATLAS 3B R/B 2.6 05:17:51 44° WNW 05:20:17 74° SW 05:27:25 10° SSE
deb Chang Zheng 4 3.5 05:26:19 10° NNE 05:30:41 85° ESE 05:35:02 10° SSW
ALOS 2.2 05:26:13 10° N 05:30:52 63° WNW 05:31:45 51° WSW
SKYMED 3 4.4 05:27:08 10° S 05:31:28 74° WSW 05:32:17 57° NW
Cosmos 923 Rocket 4.3 05:34:01 44° WSW 05:34:01 44° WSW 05:38:53 10° S
Cosmos 990 Rocket 4.3 05:30:56 10° SSW 05:36:07 68° ESE 05:41:23 10° NNE
Cosmos 2074 Rocket 4.2 05:32:00 10° S 05:38:10 72° E 05:44:22 10° NNE
METEOR-M 4.0 05:32:58 10° NNE 05:38:19 72° WNW 05:43:38 10° SSW
Cosmos 2227 Rocket 3.8 05:39:03 18° NNW 05:39:03 18° NNW 05:42:26 10° NNE
USA 305 2.9 05:38:55 57° NW 05:39:35 70° N 05:43:54 10° E
Meteor 1-31 Rocket 2.6 05:36:39 10° N 05:40:29 67° WNW 05:40:29 67° WNW
ARGOS Delta rocket 4.2 05:37:59 10° N 05:42:58 46° WNW 05:44:16 37° WSW
Cosmos 405 Rocket 4.0 05:40:28 10° SSE 05:43:56 39° E 05:47:29 10° NNE
Cosmos 2227 4.4 05:43:36 39° W 05:44:58 46° NW 05:50:24 10° NNE
Cosmos 1812 2.9 05:42:51 19° N 05:45:31 69° ENE 05:49:20 10° SSE
Cosmos 2228 Rocket 3.2 05:43:34 10° N 05:48:01 74° E 05:52:25 10° SSE
USA 306 2.9 05:47:01 49° WNW 05:48:02 71° N 05:52:21 10° E
Cosmos 1515 Rocket 3.6 05:46:49 34° NNW 05:48:33 58° W 05:52:56 10° S
EO 1 Delta rocket 3.8 05:43:43 10° SSE 05:48:37 83° E 05:53:16 10° N
CENTAUR R/B 4.1 05:48:50 24° WSW 05:49:16 24° WSW 05:55:49 10° SSW
SL-4 R/B 1.7 05:50:38 54° W 05:51:27 84° S 05:55:10 10° E
Cosmos 1782 3.4 05:52:15 37° WSW 05:52:15 37° WSW 05:55:16 10° SSW
NOSS 3-4 (A) 3.4 05:48:19 24° WSW 05:52:05 72° NW 05:58:37 10° NE
NOSS 3-4 (C) 3.4 05:48:24 24° WSW 05:52:13 72° NW 05:58:45 10° NE
PSLV R/B 3.9 05:50:04 10° S 05:54:08 57° WSW 05:55:47 33° NW
SKYMED 2 3.8 05:51:27 10° S 05:55:37 44° W 05:56:36 37° WNW
Cosmos 2184 Rocket 4.0 05:49:20 10° S 05:55:41 89° E 06:02:07 10° N
SJ-12 3.8 05:53:42 10° N 05:57:44 63° WNW 06:01:45 10° SSW
FALCON 9 DEB 3.9 05:56:58 29° SSW 05:58:10 45° SSE 06:01:15 10° E
Meteor 2-17 Rocket 4.3 05:53:19 10° SSW 05:59:18 63° WNW 06:05:21 10° N
FALCON 9 DEB 3.1 05:59:52 52° WNW 06:00:36 81° N 06:04:05 10° E
Cosmos 1844 Rocket 3.0 05:56:00 10° SSW 06:01:37 71° ESE 06:07:18 10° NE
Cosmos 1680 Rocket 4.1 06:00:24 31° WNW 06:01:43 35° WSW 06:06:30 10° SSW
EXPRESS MD2 4.0 06:03:36 32° WSW 06:05:11 57° S 06:11:44 10° ESE
ATLAS CENTAUR R/B 1.9 06:08:18 32° WSW 06:08:50 33° WSW 06:12:22 10° S
Meteor PRIRODA 3.6 06:05:25 10° N 06:09:08 65° WNW 06:12:50 10° SSW
COSMOS 2455 4.2 06:04:08 10° S 06:09:45 42° ESE 06:15:24 10° NE
RESURS DK-1 2.3 06:05:42 10° SSW 06:09:52 87° WNW 06:14:04 10° NNE
Cosmos 2344 4.5 06:03:02 19° NW 06:10:10 59° SW 06:22:43 10° SSE
ERBS 2.9 06:11:05 34° NW 06:11:41 38° N 06:14:50 10° ENE
ATLAS 2AS CENTAUR R/B 3.0 06:04:01 10° SW 06:12:01 73° NW 06:19:47 10° NE
ADEOS 4.0 06:07:52 10° N 06:12:41 38° WNW 06:17:28 10° SW
Cosmos 2297 Rocket 4.0 06:12:19 13° NNW 06:13:28 13° NNW 06:16:13 10° NNE
H-2A R/B 2.7 06:09:32 10° NNE 06:13:29 89° E 06:17:22 10° SSW
Cosmos 1500 Rocket 3.4 06:10:54 10° SSW 06:15:12 73° WNW 06:19:34 10° N
Lacrosse 5 1.8 06:11:17 17° WSW 06:15:16 87° NNW 06:20:22 10° ENE
Cosmos 1844 3.9 06:10:00 10° SSW 06:15:31 73° ESE 06:21:07 10° NE
Cosmos 1437 Rocket 2.6 06:12:00 11° NNW 06:15:40 87° WSW 06:19:26 10° S
CZ-2C R/B 4.4 06:13:21 10° NNW 06:13:41 11° NNW 06:13:41 11° NNW
Meteor 2-6 Rocket 4.2 06:13:09 10° NNW 06:18:23 52° W 06:23:37 10° S
Okean O Rocket 3.4 06:15:19 10° NNE 06:19:27 36° E 06:23:33 10° SSE
Uosat 12 SS-18 rocket 4.5 06:16:46 19° NW 06:20:10 80° NE 06:25:47 10° SE
SMAP 4.3 06:18:41 10° NNE 06:23:11 45° E 06:27:39 10° S
Geosat 4.4 06:19:01 10° SE 06:23:58 62° NE 06:28:57 10° NNW
SJ 16-02 2.2 06:22:57 22° W 06:24:44 28° NW 06:28:37 10° N
Cosmos 2263 Rocket 3.1 06:24:56 20° W 06:27:46 29° NW 06:32:42 10° NNE
FALCON 9 DEB 3.3 06:28:58 16° WSW 06:31:26 65° SSE 06:34:39 10° ENE
FALCON 9 DEB 3.2 06:29:05 16° WSW 06:31:30 67° SSE 06:34:43 10° ENE
ATLAS 5 CENTAUR R/B 4.3 06:28:51 10° SSE 06:32:04 22° ESE 06:35:34 10° ENE
Nadezhda 3 Rocket 4.1 06:27:01 10° NNW 06:33:13 59° W 06:39:19 10° S
SJ-7 4.3 06:31:15 10° N 06:35:18 69° WNW 06:39:23 10° SSW
Cosmos 1898 Rocket 3.7 06:30:20 10° SW 06:35:32 53° WNW 06:40:48 10° NNE
Sich 1 3.3 06:31:29 10° S 06:35:54 76° E 06:40:22 10° NNE
H-2A R/B 2.3 06:33:39 10° NNE 06:37:33 84° ESE 06:41:23 10° SSW
CZ-2C R/B 2.8 06:32:05 10° SSE 06:37:33 83° ENE 06:42:56 10° NNW
Envisat 3.0 06:32:31 10° NNE 06:37:39 87° WNW 06:42:43 10° SSW
Cosmos 1743 Rocket 3.9 06:35:02 10° SW 06:39:17 43° WNW 06:43:36 10° N
COSMO-SKYMED 1 4.1 06:41:14 10° SW 06:44:05 17° W 06:45:12 16° WNW
USA 307 2.9 06:41:18 17° WNW 06:44:36 88° SSW 06:48:56 10° ESE
Cosmos 2082 Rocket 2.9 06:40:38 10° NNW 06:46:14 53° NE 06:51:49 10° SE
CZ-4B R/B 3.7 06:41:58 10° NNE 06:47:18 66° ESE 06:52:42 10° S
CZ-4 R/B 4.4 06:46:37 10° NE 06:49:37 19° E 06:52:36 10° SE
USA 308 2.9 06:47:25 15° WNW 06:50:57 84° SSW 06:55:16 10° ESE
Cosmos 1862 Rocket 4.0 06:46:41 10° N 06:51:09 68° ENE 06:55:34 10° SSE
CZ-4B R/B 4.0 06:47:45 10° N 06:51:38 29° WNW 06:55:26 10° WSW
Cosmos 1937 Rocket 3.6 06:47:28 10° SW 06:52:30 51° WNW 06:57:36 10° NNE
NOSS 7 (H) 4.1 06:51:08 10° WSW 06:54:14 60° NW 06:57:08 10° NE
FALCON 9 DEB 3.0 06:51:04 10° WSW 06:54:17 81° SSE 06:57:31 10° ENE
NOSS 7 (E) 4.2 06:51:39 10° SW 06:55:08 86° NW 06:58:13 10° NE
MOS 1 Rocket 4.2 06:51:59 10° SSW 06:56:22 33° W 07:01:01 10° NNW
Cosmos 1833 Rocket 2.7 06:50:42 10° NNW 06:56:23 88° SW 07:02:00 10° SSE
Aureole 2 Rocket 2.0 06:55:02 10° SW 06:57:27 40° WNW 06:59:55 10° NNE
Meteor 2-12 Rocket 4.4 06:52:07 10° SSW 06:58:17 81° WNW 07:04:30 10° N
Cosmos 1805 Rocket 3.7 06:54:04 10° SSW 06:58:24 53° WNW 07:02:49 10° N
Meteor 1-27 Rocket 4.0 06:54:33 10° NNW 07:00:05 49° W 07:05:42 10° SSW
YAOGAN 6 2.8 06:57:36 10° N 07:00:57 42° WNW 07:04:15 10° SW
Cosmos 494 Rocket 4.0 06:57:04 10° NNW 07:02:18 87° WSW 07:07:26 10° SSE
Cosmos 2154 Rocket 4.2 06:56:59 10° SSW 07:02:59 49° WNW 07:09:05 10° N
CZ-4C R/B 2.4 06:58:54 10° WSW 07:04:07 54° NNW 07:10:29 10° NE
BREEZE-M DEB (TANK) 4.4 07:01:35 10° WSW 07:04:28 38° S 07:10:27 10° ESE
Cosmos 1862 4.2 07:01:10 10° SW 07:04:40 27° WNW 07:08:11 10° N
Cosmos 1666 Rocket 3.5 07:01:07 10° S 07:05:27 86° W 07:09:50 10° N
Genesis I 3.5 07:02:15 10° WSW 07:05:56 43° NW 07:09:40 10° NE
COSMOS 2406 3.3 07:01:03 10° NW 07:06:45 65° WSW 07:12:27 10° SSE
Cosmos 1048 Rocket 4.2 07:01:49 10° NNW 07:07:02 58° WSW 07:12:07 10° S
ALOS 4.0 07:05:36 10° NNW 07:07:24 12° NW 07:09:11 10° WNW
Cosmos 2150 Rocket 4.3 07:02:35 10° SSW 07:07:53 76° ESE 07:13:08 10° NNE
Cosmos 2298 Rocket 4.2 07:03:05 10° SSW 07:08:23 81° ESE 07:13:42 10° NNE
Cosmos 1125 Rocket 4.3 07:03:52 10° S 07:08:58 57° ESE 07:14:04 10° NNE
ATLAS 3B R/B 4.1 07:05:13 10° WNW 07:10:01 20° WSW 07:14:56 10° SSW
PSLV R/B 4.5 07:07:18 10° N 07:10:47 31° WNW 07:14:10 10° SW
DMSP B5D2-2 4.1 07:07:39 10° S 07:12:51 67° WSW 07:18:04 10° NNW
Cosmos 2242 Rocket 4.4 07:09:23 10° N 07:13:44 53° ENE 07:18:04 10° SSE
Cosmos 2278 Rocket 3.0 07:11:42 10° S 07:17:14 58° ESE 07:22:49 10° NE
Okean 1 3.4 07:14:43 10° N 07:18:49 87° E 07:22:52 10° S
Cosmos 2341 Rocket 4.0 07:12:48 10° SSW 07:18:57 64° WNW 07:25:11 10° N
USA 305 3.2 07:15:23 10° WNW 07:19:40 65° SSW 07:23:55 10° SE
Cosmos 405 Rocket 3.9 07:17:14 10° WSW 07:20:06 21° WNW 07:23:02 10° NNW
FengYun 1-2 T 4.3 07:15:43 10° NNE 07:21:15 87° ESE 07:26:46 10° SSW
Cosmos 2227 Rocket 4.2 07:23:29 10° NNW 07:25:10 11° N 07:26:52 10° NNE
NOAA 12 4.1 07:20:03 10° N 07:25:18 64° WNW 07:30:28 10° SSW
SL-8 Rocket 4.0 07:20:08 10° SSW 07:26:16 72° WNW 07:32:28 10° N
